CAPE
0 0 0 0 0 0 0 0 0 0 0 0 0 0 0 0 0 0 0 0 0 0 0 0 0 0 0 0 0 0 0 0 0 0 0 0 0 0 0 0 0 0 0 0
0 0 0 0 0 0 0 0 0 0 0 0 0 0 0 0 0 0 0 0 0 0 0 0 0 0 0 0 0 0 0 0 0 0 0 0 0 0 0 0 0 0 0 0
0 0 0 0 0 0 0 0 0 0 0 0 0 0 0 0 0 0 0 0 0 0 0 0 0 0 0 0 0 0 0 0 0 0 0 0 0 0 0 0 0 0 0 0
2 0 0 0 0 0 0 0 0 0 0 1 0 0 0 0 0 0 0 0 0 0 0 0 0 0 0 0 0 0 0 0 0 0 0 0 0 0 0 0 0 0 0 0
0 0 0 2 2 0 0 0 0 0 0 0 0 0 0 0 0 0 0 0 0 0 0 0 0 0 0 0 0 0 0 0 0 0 0 0 0 0 0 0 0 0 0 0
2 1 3 6 0 4 1 8 0 1 0 0 0 0 0 0 0 0 0 0 0 0 0 0 0 0 0 0 0 0 0 0 0 0 0 0 0 0 0 0 0 0 0 0
8 4 20 1 3 0 0 0 0 0 0 0 0 1 0 0 0 0 0 0 0 0 0 0 0 0 0 0 0 0 0 0 0 0 0 0 0 0 0 0 0 0 0 0
3 1 4 0 14 0 0 0 0 6 0 0 0 0 0 0 0 0 0 0 0 0 0 0 0 0 0 0 0 0 0 0 0 0 0 0 0 0 0 0 0 0 0 0
23 11 0 0 0 1 0 0 0 10 0 0 0 0 0 0 0 0 0 0 0 0 0 0 0 0 0 0 0 0 0 0 0 0 0 0 0 0 0 0 0 0 0 0
0 5 2 0 1 0 15 0 0 1 8 4 0 0 0 0 0 0 0 0 0 0 0 0 0 0 0 0 0 0 0 0 0 0 0 0 0 0 0 0 0 0 0 0
0 21 4 0 2 0 2 1 0 0 11 23 31 0 0 0 0 0 0 0 0 0 0 0 0 0 0 0 0 0 0 0 0 0 0 0 0 0 0 0 0 0 0 0
3 6 14 0 0 0 0 0 0 4 8 0 2 1 0 0 0 0 0 0 0 0 0 0 0 0 0 0 0 0 0 0 0 0 0 0 0 0 0 0 0 0 0 0
1 7 0 0 0 0 0 0 0 0 0 2 1 0 0 0 0 0 0 0 0 0 0 0 0 0 0 0 0 0 0 0 0 0 0 0 0 0 0 0 0 0 0 0
3 3 1 5 0 0 0 0 0 0 0 0 0 0 0 0 0 0 0 0 0 0 0 0 0 0 0 0 0 0 0 0 0 0 0 0 0 0 0 0 0 0 0 0
11 7 2 0 0 0 0 0 1 0 0 0 0 0 0 0 0 0 0 0 0 0 0 0 0 0 0 0 0 0 0 0 0 0 0 0 0 0 0 0 0 0 0 0
2 4 0 0 0 0 0 0 0 2 0 0 0 0 0 0 0 0 0 0 0 0 0 0 0 0 0 0 0 0 0 0 0 0 0 0 0 0 0 0 0 0 0 0
13 4 0 0 0 0 0 0 0 0 0 0 0 0 0 0 0 0 0 0 0 0 0 0 0 0 0 0 0 0 0 0 0 0 0 0 0 0 0 0 0 0 0 0
8 6 7 0 0 0 0 0 0 0 0 0 0 1 0 0 0 0 0 0 0 0 0 0 0 0 0 0 0 0 0 0 0 0 0 0 0 0 0 0 0 0 0 0
1 8 2 0 0 0 0 0 0 0 0 0 0 0 2 0 0 0 0 0 0 0 0 0 0 0 0 0 0 0 0 0 0 0 0 0 0 0 0 0 0 0 0 0
1 1 0 0 0 0 0 0 0 0 0 0 0 0 0 0 0 0 0 0 0 0 0 0 0 0 0 0 0 0 0 0 0 0 0 0 0 0 0 0 0 0 0 0
0 0 0 0 0 0 0 0 0 0 0 0 0 0 0 0 0 0 0 0 0 0 0 0 0 0 0 0 0 0 0 0 0 0 0 0 0 0 0 0 0 0 0 0
0 0 0 0 0 0 0 0 0 0 0 0 0 0 0 0 0 0 0 0 0 0 0 0 0 0 0 0 0 0 0 0 0 0 0 0 0 0 0 0 0 0 0 0
0 0 0 0 2 0 0 0 0 0 0 0 0 0 0 0 0 0 0 0 0 0 0 0 0 0 0 0 0 0 0 0 0 0 0 0 0 0 0 0 0 0 0 0
0 0 0 0 1 0 0 0 0 0 0 0 0 0 0 0 0 0 0 0 0 0 0 0 0 0 0 0 0 0 0 0 0 0 0 0 0 0 0 0 0 0 0 0
0 0 0 0 0 0 0 0 0 0 0 0 0 0 0 0 0 0 0 0 0 0 0 0 0 0 0 0 0 0 0 0 0 0 0 0 0 0 0 0 0 0 0 0
0 0 0 0 0 0 0 0 0 0 0 0 0 0 0 0 0 0 0 0 0 0 0 0 0 0 0 0 0 0 0 0 0 0 0 0 0 0 0 0 0 0 0 0
CIN
0 0 0 0 0 0 0 0 0 0 0 0 0 0 0 0 0 0 0 0 0 0 0 0 0 0 0 0 0 0 0 0 0 0 0 0 0 0 0 0 0 0 0 0
0 0 0 0 0 0 0 0 0 0 0 0 0 0 0 0 0 0 0 0 0 0 0 0 0 0 0 0 0 0 0 0 0 0 0 0 0 0 0 0 0 0 0 0
0 0 0 0 0 0 0 0 0 0 0 0 0 0 0 0 0 0 0 0 0 0 0 0 0 0 0 0 0 0 0 0 0 0 0 0 0 0 0 0 0 0 0 0
-1 0 0 0 0 0 0 0 0 0 0 -1 0 0 0 0 0 0 0 0 0 0 0 0 0 0 0 0 0 0 0 0 0 0 0 0 0 0 0 0 0 0 0 0
0 0 0 -1 -2 0 0 0 0 0 0 0 0 0 0 0 0 0 0 0 0 0 0 0 0 0 0 0 0 0 0 0 0 0 0 0 0 0 0 0 0 0 0 0
-3 -2 -5 -3 0 -3 -3 -18 0 0 0 0 0 0 0 0 0 0 0 0 0 0 0 0 0 0 0 0 0 0 0 0 0 0 0 0 0 0 0 0 0 0 0 0
-1 -2 -7 -14 -7 0 0 0 0 0 0 0 0 0 0 0 0 0 0 0 0 0 0 0 0 0 0 0 0 0 0 0 0 0 0 0 0 0 0 0 0 0 0 0
-1 -4 0 0 -1 0 0 0 0 -9 0 0 0 0 0 0 0 0 0 0 0 0 0 0 0 0 0 0 0 0 0 0 0 0 0 0 0 0 0 0 0 0 0 0
-2 -4 0 0 -1 -8 0 0 0 -7 0 0 0 0 0 0 0 0 0 0 0 0 0 0 0 0 0 0 0 0 0 0 0 0 0 0 0 0 0 0 0 0 0 0
0 -5 -43 0 0 0 -12 0 0 0 -22 -13 0 0 0 0 0 0 0 0 0 0 0 0 0 0 0 0 0 0 0 0 0 0 0 0 0 0 0 0 0 0 0 0
0 -1 -13 0 0 0 0 -34 0 0 -5 -8 -14 0 0 0 0 0 0 0 0 0 0 0 0 0 0 0 0 0 0 0 0 0 0 0 0 0 0 0 0 0 0 0
-4 0 -1 0 0 0 0 0 0 -26 -36 0 -1 -1 0 0 0 0 0 0 0 0 0 0 0 0 0 0 0 0 0 0 0 0 0 0 0 0 0 0 0 0 0 0
0 -1 0 0 0 0 0 0 0 0 0 -23 -6 0 0 0 0 0 0 0 0 0 0 0 0 0 0 0 0 0 0 0 0 0 0 0 0 0 0 0 0 0 0 0
0 0 0 -1 0 0 0 0 0 0 0 -6 -13 0 0 0 0 0 0 0 0 0 0 0 0 0 0 0 0 0 0 0 0 0 0 0 0 0 0 0 0 0 0 0
0 0 -5 0 0 0 0 0 0 0 0 0 0 0 0 0 0 0 0 0 0 0 0 0 0 0 0 0 0 0 0 0 0 0 0 0 0 0 0 0 0 0 0 0
-3 0 0 0 0 0 0 0 0 -1 0 0 0 0 0 0 0 0 0 0 0 0 0 0 0 0 0 0 0 0 0 0 0 0 0 0 0 0 0 0 0 0 0 0
0 0 0 0 0 0 0 0 0 0 0 0 0 0 0 0 0 0 0 0 0 0 0 0 0 0 0 0 0 0 0 0 0 0 0 0 0 0 0 0 0 0 0 0
0 -1 0 0 0 0 0 0 0 0 0 0 0 0 0 0 0 0 0 0 0 0 0 0 0 0 0 0 0 0 0 0 0 0 0 0 0 0 0 0 0 0 0 0
0 0 0 0 0 0 0 0 0 0 0 0 0 0 0 0 0 0 0 0 0 0 0 0 0 0 0 0 0 0 0 0 0 0 0 0 0 0 0 0 0 0 0 0
0 0 0 0 -1 0 0 0 0 0 0 0 0 0 0 0 0 0 0 0 0 0 0 0 0 0 0 0 0 0 0 0 0 0 0 0 0 0 0 0 0 0 0 0
0 0 0 0 0 0 0 0 0 0 0 0 0 0 0 0 0 0 0 0 0 0 0 0 0 0 0 0 0 0 0 0 0 0 0 0 0 0 0 0 0 0 0 0
0 0 0 0 0 0 0 0 0 0 0 0 0 0 0 0 0 0 0 0 0 0 0 0 0 0 0 0 0 0 0 0 0 0 0 0 0 0 0 0 0 0 0 0
0 0 0 0 0 0 0 0 0 0 0 0 0 0 0 0 0 0 0 0 0 0 0 0 0 0 0 0 0 0 0 0 0 0 0 0 0 0 0 0 0 0 0 0
0 0 0 0 0 0 0 0 0 0 0 0 0 0 0 0 0 0 0 0 0 0 0 0 0 0 0 0 0 0 0 0 0 0 0 0 0 0 0 0 0 0 0 0
0 0 0 0 0 0 0 0 0 0 0 0 0 0 0 0 0 0 0 0 0 0 0 0 0 0 0 0 0 0 0 0 0 0 0 0 0 0 0 0 0 0 0 0
0 0 0 0 0 0 0 0 0 0 0 0 0 0 0 0 0 0 0 0 0 0 0 0 0 0 0 0 0 0 0 0 0 0 0 0 0 0 0 0 0 0 0 0
Wind_Speed
15 10 17 25 24 16 16 14 16 12 12 7 22 19 16 17 7 8 8 9 11 11 10 12 11 7 5 6 7 8 10 10 7 4 4 4 4 4 2 3 6 4 2 3
9 20 28 22 18 18 17 15 22 17 9 10 6 16 14 16 15 15 13 13 10 9 10 10 9 9 8 8 8 8 10 11 8 5 4 4 4 4 4 4 5 4 4 3
20 18 18 16 18 19 21 22 22 20 10 2 5 16 12 10 12 12 17 14 12 14 13 12 11 9 8 9 9 9 9 11 8 7 4 3 4 4 3 2 3 4 5 4
16 26 17 19 23 23 22 22 21 21 11 14 7 23 19 16 22 24 24 19 18 15 13 14 13 10 8 7 7 8 9 9 7 8 7 6 4 4 4 5 4 4 6 4
13 20 22 23 20 23 20 12 19 19 13 6 8 7 16 12 22 20 24 22 18 16 14 17 15 10 8 8 7 7 9 8 7 8 7 6 5 3 3 3 5 3 4 6
14 8 6 20 22 17 11 3 3 2 7 14 20 12 31 16 22 9 9 23 19 13 15 15 14 12 9 7 7 7 8 7 7 7 5 6 6 4 4 3 4 3 3 4
22 21 7 6 11 4 5 9 6 6 7 11 14 14 27 9 23 23 19 16 12 11 16 16 16 14 13 9 8 8 9 8 8 8 6 5 4 4 4 4 3 3 3 2
16 16 19 12 17 11 17 18 9 9 7 7 15 11 17 9 19 9 1 4 10 13 13 14 15 12 11 11 9 9 8 7 8 8 7 5 5 3 3 3 2 2 2 2
9 14 6 15 13 18 7 16 18 4 2 5 6 5 12 8 4 2 0 9 12 12 11 12 12 8 9 9 9 9 8 7 8 7 6 5 5 4 3 3 3 3 2 2
4 11 8 5 7 3 9 9 6 9 8 6 5 4 10 4 9 8 7 10 11 10 11 10 9 8 7 8 8 8 7 6 4 5 5 4 4 4 4 4 2 3 3 3
3 5 2 14 11 15 5 8 5 5 6 6 3 6 3 5 3 10 9 9 13 13 11 10 8 8 7 7 7 6 6 5 4 3 3 3 2 4 4 4 3 4 3 4
6 4 3 3 2 1 4 9 14 6 6 5 2 7 1 1 3 1 10 9 11 12 13 11 10 8 6 6 6 6 4 5 3 2 2 1 2 2 3 3 5 4 5 4
1 3 2 3 1 1 4 7 8 9 3 9 7 5 2 1 4 1 7 7 12 13 13 11 10 8 7 7 6 6 4 4 4 3 2 2 2 3 4 5 5 4 4 4
4 4 6 6 1 1 5 8 8 14 7 6 8 3 5 3 3 0 6 8 10 11 11 11 9 8 6 6 6 5 5 4 3 4 2 2 2 3 4 4 4 4 4 4
3 5 5 4 3 2 2 4 11 13 13 8 4 3 2 2 6 5 6 9 10 9 9 8 9 8 7 6 5 4 4 3 3 3 2 2 2 1 1 0 1 2 3 4
3 3 0 3 1 2 4 7 8 12 16 13 10 6 5 3 4 4 6 10 10 9 7 6 8 8 7 6 5 4 4 3 3 3 2 1 1 2 3 3 4 4 4 4
4 2 3 2 1 4 5 6 10 4 5 4 13 5 3 2 4 5 5 6 9 11 9 8 7 6 6 6 6 6 5 4 3 3 1 2 1 1 2 3 4 4 4 3
4 1 2 1 1 3 3 4 3 2 6 8 6 4 1 3 2 3 2 8 7 8 9 8 8 8 6 4 4 4 5 4 4 3 2 2 1 1 1 1 2 2 3 5
4 2 2 2 3 2 2 6 3 3 4 4 5 6 4 2 2 4 3 2 8 7 7 8 8 7 7 5 4 5 4 4 4 3 2 1 1 2 3 3 3 3 1 1
3 2 2 2 3 0 3 5 2 3 2 2 2 5 6 1 2 2 3 3 9 10 9 10 8 8 7 4 3 5 5 4 4 3 2 0 0 1 3 4 3 2 1 3
1 0 2 2 0 4 3 6 2 2 4 5 3 4 4 2 2 3 7 8 6 7 10 8 6 6 6 5 3 4 4 4 3 2 2 2 2 3 3 3 3 4 3 3
3 4 3 2 2 3 3 4 5 4 3 3 3 3 2 2 4 6 7 7 6 7 7 7 8 6 5 4 3 4 4 4 4 3 3 3 2 2 2 2 3 3 2 3
3 3 3 5 4 3 3 1 2 1 3 4 3 1 3 3 3 4 5 5 6 6 5 4 7 8 5 4 4 5 3 4 3 3 3 3 3 3 2 2 3 3 2 1
2 3 3 2 4 3 3 1 2 2 3 5 5 1 1 2 5 5 5 6 5 5 3 3 5 5 4 3 4 4 4 4 3 1 2 2 1 2 3 3 2 1 2 1
2 5 5 1 4 2 5 8 8 8 4 5 4 5 2 2 4 5 5 5 5 5 4 4 4 4 5 4 4 3 4 4 1 2 3 2 1 2 1 3 2 2 2 3
5 4 4 2 6 4 4 8 11 9 9 9 5 3 3 3 4 5 5 4 4 5 3 3 4 5 4 3 2 2 3 3 1 2 2 0 1 2 1 1 3 8 9 10
Wind_Direction
197 192 206 215 220 233 256 260 247 229 238 190 222 228 224 247 222 239 236 228 208 199 181 165 154 164 178 182 181 200 158 156 148 143 147 149 158 164 153 152 130 131 152 147
191 213 221 218 219 225 241 255 261 277 288 202 247 248 239 240 243 204 211 222 215 191 155 151 149 165 190 192 195 191 162 156 152 147 158 151 164 176 164 153 140 172 158 170
208 215 226 217 225 232 224 228 242 252 272 285 349 275 246 245 257 249 214 214 206 195 180 165 165 175 184 184 187 171 151 150 151 158 151 110 75 58 76 134 161 179 171 162
215 233 224 208 220 221 237 224 237 242 248 249 174 269 256 248 229 226 229 209 211 197 183 163 164 173 176 176 170 149 144 146 155 151 130 140 148 152 193 177 176 164 157 171
214 219 220 225 221 218 239 220 226 245 240 242 217 251 257 204 239 233 222 225 208 199 179 170 164 156 163 151 147 134 133 146 149 139 151 167 180 166 121 119 120 141 168 173
249 265 266 222 233 236 234 200 29 293 228 229 220 205 268 233 242 247 249 207 207 179 158 156 149 141 136 138 139 134 134 139 137 144 165 163 166 165 136 148 156 183 188 178
231 234 219 259 233 35 124 147 204 215 209 235 203 208 243 225 233 243 249 206 186 154 153 149 149 147 145 151 149 144 144 152 149 156 167 166 157 156 165 167 167 175 176 167
221 242 198 188 218 189 190 192 206 227 207 226 159 206 238 229 231 248 266 175 143 152 153 151 149 154 152 150 150 146 152 156 156 159 167 162 161 159 176 183 163 159 150 161
214 227 130 188 190 174 182 217 222 278 189 251 180 269 303 209 190 140 134 153 157 151 151 142 140 146 144 145 149 147 151 156 158 157 161 166 162 171 176 171 128 130 104 121
297 268 201 174 196 304 206 155 190 209 229 239 197 262 231 245 207 154 166 166 157 142 134 131 129 126 123 123 117 110 110 112 105 130 144 156 167 158 128 102 119 111 128 122
353 237 339 133 197 185 161 191 205 230 211 238 193 232 227 244 221 181 166 173 160 146 137 127 116 96 93 87 84 88 87 98 88 75 66 116 150 134 132 145 185 187 165 182
199 302 252 201 51 5 322 234 195 199 175 231 39 269 294 327 314 231 169 165 151 133 128 122 110 110 106 111 108 117 105 107 116 108 100 161 153 137 148 183 203 185 190 198
198 255 214 171 58 151 230 208 237 230 80 204 203 254 180 12 348 4 156 131 127 127 120 120 125 138 142 135 130 121 122 126 118 105 140 216 207 175 198 211 199 179 193 202
300 222 226 276 46 121 189 209 210 226 225 196 207 223 334 305 173 268 111 114 126 136 137 135 139 141 142 133 131 129 120 124 149 130 149 205 213 209 209 205 190 184 192 193
222 260 200 240 217 267 303 236 218 224 245 214 259 228 83 214 195 181 140 129 133 141 145 152 146 141 137 129 122 115 119 127 123 142 153 213 204 234 203 83 189 195 204 207
210 269 240 262 172 264 267 236 245 229 237 263 265 271 182 219 63 96 166 152 152 153 146 147 140 138 138 140 142 144 146 161 138 138 173 167 148 212 220 216 216 210 219 217
263 227 202 219 290 221 280 239 222 226 229 251 237 271 153 100 143 170 178 185 166 158 152 150 142 137 137 140 151 159 160 155 138 133 127 121 124 248 232 216 210 210 211 222
287 262 253 138 269 235 260 234 226 268 54 4 340 320 143 118 69 65 164 167 162 155 148 139 133 116 128 130 118 134 147 143 115 82 77 78 55 331 315 318 292 261 240 252
234 241 248 217 200 208 83 348 356 39 42 8 309 330 317 32 198 186 185 331 155 141 127 118 110 124 121 124 141 125 98 100 105 108 98 76 342 318 326 327 288 267 262 251
230 250 261 112 257 53 307 315 258 7 73 339 301 314 332 197 209 100 85 42 84 99 112 119 119 127 126 139 140 131 133 134 118 93 68 42 340 0 302 287 292 283 300 274
293 105 312 252 211 93 281 302 351 7 283 333 337 301 309 285 349 81 81 71 74 105 115 121 126 119 117 110 91 107 116 119 114 88 41 22 15 348 292 319 341 313 310 323
358 324 31 289 16 65 350 316 66 237 288 239 309 337 353 73 100 82 83 86 93 110 120 125 116 117 118 111 132 127 111 77 54 29 5 13 340 310 329 14 297 273 280 296
52 13 355 11 57 297 336 71 279 245 260 340 346 239 110 98 97 115 116 122 133 131 126 121 126 127 118 113 104 118 110 90 77 35 338 316 314 312 313 288 270 300 269 262
73 9 349 219 22 27 20 54 343 265 292 349 3 42 237 91 134 127 135 131 123 111 112 96 116 118 122 116 95 82 104 85 74 3 301 289 293 308 304 290 275 254 310 337
356 329 325 58 36 328 83 44 10 347 335 341 15 359 322 99 158 134 125 126 131 137 145 147 143 137 132 122 105 101 103 97 8 290 278 287 256 254 284 280 267 272 269 212
354 360 6 349 37 317 317 21 13 359 3 346 349 357 22 9 147 120 132 130 134 148 155 122 100 103 105 102 96 134 128 128 165 301 289 36 282 310 291 262 295 303 275 251